Date String (YYYY-MM-DD hh:mm:ss) UTC,Instrument flags,absolute air pressure of the measurement (hPa),sample flow rate (lpm),inlet stack bypass flow (lpm),air temperature of the measurement (°C),ambient temperature measured by the external sensor (°C),aerosol sample conditioner tube jacket temperature (°C),OPC LED temperature (°C),internal box temperature (°C),relative humidity of the measurement (%),span deviation,mass concentration of particles derived from Lorenz-Mie calculation of OPC scattering (μg/m³),mass concentration of particles derived from Lorenz-Mie calculation of OPC scattering (μg/m³),mass concentration of particles derived from Lorenz-Mie calculation of OPC scattering (μg/m³)
DateTimeUTC,F1_M11,P_M11,Q1_M11,Q2_M11,T1_M11,T2_M11,T3_M11,T4_M11,T5_M11,U1_M11,ZSPAN_M11,X0_M11,X2_M11,X1_M11
2023-08-31 06:00:00,SystemResetWarning,0828.4,5.00,000.00,025.5,024.0,000.0,033.8,027.2,22.3,0000.0,0005.66,0002.80,0002.24
2023-08-31 06:01:00,SystemResetWarning,0828.4,5.00,000.00,025.5,024.3,000.0,033.8,027.3,22.1,0000.0,0005.09,0002.80,0002.24
2023-08-31 06:02:00,SystemResetWarning,0828.4,5.00,000.00,025.6,024.5,000.0,033.8,027.4,22.2,0000.0,0004.40,0002.77,0002.23
2023-08-31 06:03:00,SystemResetWarning,0828.4,5.00,000.00,025.7,024.7,000.0,033.9,027.5,22.1,0000.0,0003.94,0002.75,0002.23
2023-08-31 06:04:00,SystemResetWarning,0828.4,5.00,000.00,025.7,024.6,000.0,033.9,027.5,22.1,0000.0,0003.87,0002.76,0002.25
2023-08-31 06:05:00,SystemResetWarning,0828.3,4.98,000.00,025.7,023.2,000.0,033.8,027.1,22.1,0000.0,0003.92,0002.77,0002.26
2023-08-31 06:06:00,SystemResetWarning,0828.4,5.01,000.00,025.5,021.9,000.0,033.8,026.7,22.4,0000.0,0004.00,0002.79,0002.28
2023-08-31 06:07:00,SystemResetWarning,0828.4,5.01,000.00,025.4,021.9,000.0,033.7,026.6,22.5,0000.0,0003.93,0002.75,0002.29
2023-08-31 06:08:00,SystemResetWarning,0828.4,4.99,000.00,025.3,022.2,000.0,033.7,026.6,22.2,0000.0,0003.96,0002.73,0002.28
2023-08-31 06:09:00,SystemResetWarning,0828.4,5.00,000.00,025.3,022.6,000.0,033.7,026.8,22.2,0000.0,0004.04,0002.76,0002.30
2023-08-31 06:10:00,SystemResetWarning,0828.4,4.99,000.00,025.4,023.0,000.0,033.7,026.9,21.6,0000.0,0005.00,0002.78,0002.31
2023-08-31 06:11:00,SystemResetWarning,0828.4,5.00,000.00,025.4,023.4,000.0,033.7,027.0,21.9,0000.0,0006.49,0002.85,0002.33
2023-08-31 06:12:00,SystemResetWarning,0828.4,5.00,000.00,025.4,023.7,000.0,033.8,027.1,22.2,0000.0,0007.58,0002.88,0002.34
2023-08-31 06:13:00,SystemResetWarning,0828.4,5.00,000.00,025.5,024.0,000.0,033.8,027.2,22.0,0000.0,0007.85,0002.97,0002.39
2023-08-31 06:14:00,SystemResetWarning,0828.4,5.00,000.00,025.5,024.3,000.0,033.8,027.3,21.4,0000.0,0008.58,0003.06,0002.44
2023-08-31 06:15:00,SystemResetWarning,0828.4,5.00,000.00,025.6,024.5,000.0,033.8,027.4,20.8,0000.0,0008.63,0003.09,0002.45
2023-08-31 06:16:00,SystemResetWarning,0828.4,5.00,000.00,025.7,024.7,000.0,033.9,027.5,20.7,0000.0,0008.98,0003.16,0002.49
2023-08-31 06:17:00,SystemResetWarning,0828.4,5.00,000.00,025.7,024.8,000.0,033.9,027.5,20.8,0000.0,0009.42,0003.21,0002.53
2023-08-31 06:18:00,SystemResetWarning,0828.4,4.98,000.00,025.7,023.7,000.0,033.9,027.2,20.8,0000.0,0009.53,0003.24,0002.57
2023-08-31 06:19:00,SystemResetWarning,0828.3,5.01,000.00,025.6,022.2,000.0,033.8,026.8,20.9,0000.0,0009.89,0003.29,0002.61
2023-08-31 06:20:00,SystemResetWarning,0828.3,5.01,000.00,025.5,021.9,000.0,033.7,026.7,21.2,0000.0,0010.04,0003.33,0002.65
2023-08-31 06:21:00,SystemResetWarning,0828.3,5.01,000.00,025.4,022.1,000.0,033.7,026.6,21.2,0000.0,0009.72,0003.37,0002.68
2023-08-31 06:22:00,SystemResetWarning,0828.3,5.00,000.00,025.4,022.5,000.0,033.7,026.7,21.0,0000.0,0008.99,0003.38,0002.71
2023-08-31 06:23:00,SystemResetWarning,0828.3,5.01,000.00,025.4,022.9,000.0,033.8,026.9,20.9,0000.0,0008.38,0003.41,0002.76
2023-08-31 06:24:00,SystemResetWarning,0828.3,5.00,000.00,025.4,023.3,000.0,033.8,027.0,20.6,0000.0,0008.26,0003.39,0002.75
2023-08-31 06:25:00,SystemResetWarning,0828.3,4.99,000.00,025.4,023.7,000.0,033.8,027.1,20.5,0000.0,0007.58,0003.36,0002.74
2023-08-31 06:26:00,SystemResetWarning,0828.3,5.00,000.00,025.5,024.0,000.0,033.8,027.2,20.3,0000.0,0007.66,0003.37,0002.76
2023-08-31 06:27:00,SystemResetWarning,0828.3,5.00,000.00,025.6,024.2,000.0,033.8,027.3,20.2,0000.0,0007.40,0003.33,0002.73
2023-08-31 06:28:00,SystemResetWarning,0828.3,5.00,000.00,025.6,024.5,000.0,033.9,027.4,20.1,0000.0,0007.41,0003.29,0002.68
2023-08-31 06:29:00,SystemResetWarning,0828.4,5.00,000.00,025.7,024.6,000.0,033.9,027.5,20.1,0000.0,0007.75,0003.28,0002.67
2023-08-31 06:30:00,SystemResetWarning,0828.3,5.00,000.00,025.7,024.8,000.0,033.9,027.6,20.0,0000.0,0008.02,0003.27,0002.65
2023-08-31 06:31:00,SystemResetWarning,0828.4,5.00,000.00,025.8,024.8,000.0,033.9,027.6,20.1,0000.0,0008.69,0003.24,0002.62
2023-08-31 06:32:00,SystemResetWarning,0828.3,4.98,000.00,025.8,023.6,000.0,033.9,027.3,19.9,0000.0,0008.57,0003.19,0002.59
2023-08-31 06:33:00,SystemResetWarning,0828.3,5.02,000.00,025.6,022.0,000.0,033.8,026.8,19.7,0000.0,0008.51,0003.17,0002.59
2023-08-31 06:34:00,SystemResetWarning,0828.2,5.01,000.00,025.5,021.9,000.0,033.8,026.8,19.8,0000.0,0008.38,0003.12,0002.56
2023-08-31 06:35:00,SystemResetWarning,0828.2,4.99,000.00,025.5,022.2,000.0,033.8,026.7,21.4,0000.0,0008.35,0003.11,0002.54
2023-08-31 06:36:00,SystemResetWarning,0828.3,4.99,000.00,025.4,022.6,000.0,033.8,026.8,20.8,0000.0,0008.49,0003.12,0002.54
2023-08-31 06:37:00,SystemResetWarning,0828.3,5.01,000.00,025.4,023.0,000.0,033.8,026.9,20.1,0000.0,0008.46,0003.10,0002.53
2023-08-31 06:38:00,SystemResetWarning,0828.4,5.01,000.00,025.5,023.4,000.0,033.8,027.1,20.2,0000.0,0008.61,0003.09,0002.55
2023-08-31 06:39:00,SystemResetWarning,0828.3,4.99,000.00,025.5,023.8,000.0,033.8,027.2,20.1,0000.0,0008.28,0003.07,0002.58
2023-08-31 06:40:00,SystemResetWarning,0828.3,5.00,000.00,025.5,024.0,000.0,033.9,027.3,20.1,0000.0,0007.72,0003.05,0002.59
2023-08-31 06:41:00,SystemResetWarning,0828.3,5.00,000.00,025.6,024.3,000.0,033.9,027.4,20.3,0000.0,0007.30,0003.00,0002.59
2023-08-31 06:42:00,SystemResetWarning,0828.3,5.00,000.00,025.7,024.5,000.0,033.9,027.4,19.5,0000.0,0006.67,0003.06,0002.62
2023-08-31 06:43:00,SystemResetWarning,0828.4,5.01,000.00,025.7,024.7,000.0,033.9,027.5,20.1,0000.0,0006.53,0003.03,0002.61
2023-08-31 06:44:00,SystemResetWarning,0828.4,5.00,000.00,025.8,024.8,000.0,034.0,027.6,20.1,0000.0,0006.69,0003.01,0002.59
2023-08-31 06:45:00,SystemResetWarning,0828.4,4.99,000.00,025.8,024.1,000.0,033.9,027.4,21.5,0000.0,0006.92,0003.07,0002.59
2023-08-31 06:46:00,SystemResetWarning,0828.4,5.00,000.00,025.7,022.4,000.0,033.9,026.9,21.4,0000.0,0007.39,0003.10,0002.57
2023-08-31 06:47:00,SystemResetWarning,0828.4,5.00,000.00,025.6,021.8,000.0,033.8,026.8,21.4,0000.0,0007.72,0003.07,0002.55
2023-08-31 06:48:00,SystemResetWarning,0828.4,5.00,000.00,025.5,022.0,000.0,033.8,026.7,21.6,0000.0,0007.87,0003.08,0002.52
2023-08-31 06:49:00,SystemResetWarning,0828.4,5.02,000.00,025.4,022.4,000.0,033.8,026.7,21.6,0000.0,0007.60,0003.03,0002.49
2023-08-31 06:50:00,SystemResetWarning,0828.4,5.00,000.00,025.4,022.8,000.0,033.8,026.9,21.9,0000.0,0007.55,0003.04,0002.48
2023-08-31 06:51:00,SystemResetWarning,0828.4,4.99,000.00,025.5,023.2,000.0,033.8,027.0,21.9,0000.0,0007.61,0003.07,0002.46
2023-08-31 06:52:00,SystemResetWarning,0828.4,5.00,000.00,025.5,023.6,000.0,033.8,027.1,21.8,0000.0,0007.76,0003.09,0002.44
2023-08-31 06:53:00,SystemResetWarning,0828.4,5.00,000.00,025.5,023.9,000.0,033.8,027.2,21.6,0000.0,0007.33,0003.05,0002.42
2023-08-31 06:54:00,SystemResetWarning,0828.4,5.01,000.00,025.6,024.2,000.0,033.9,027.3,21.6,0000.0,0007.37,0003.08,0002.43
2023-08-31 06:55:00,SystemResetWarning,0828.4,5.00,000.00,025.6,024.4,000.0,033.9,027.4,21.5,0000.0,0007.14,0003.05,0002.43
2023-08-31 06:56:00,SystemResetWarning,0828.4,5.00,000.00,025.7,024.6,000.0,033.9,027.5,21.3,0000.0,0007.05,0003.00,0002.43
2023-08-31 06:57:00,SystemResetWarning,0828.4,5.00,000.00,025.7,024.8,000.0,033.9,027.6,21.1,0000.0,0007.48,0002.96,0002.42
2023-08-31 06:58:00,SystemResetWarning,0828.4,5.00,000.00,025.8,024.9,000.0,034.0,027.6,21.1,0000.0,0007.88,0002.97,0002.43
2023-08-31 06:59:00,SystemResetWarning,0828.4,4.97,000.00,025.8,024.0,000.0,033.9,027.3,21.2,0000.0,0007.88,0002.95,0002.42
